This is the latest recevied weather packets stored in our database for station/object KMOB. If no packets are shown the sender has not sent any weather packets the latest 10 day(s).
| Time | Temp. | Humidity | Pressure | Rain* | Wind** | Luminosity | Snow |
|---|---|---|---|---|---|---|---|
| 1777422219 | 23.89° C | 83% | 1017.3 hPa | - | - | - | - |
| 1777421617 | 23.89° C | 83% | 1017.3 hPa | - | - | - | - |
| 1777421018 | 23.89° C | 83% | 1017.3 hPa | - | - | - | - |
| 1777420416 | 25° C | 73% | 1017.3 hPa | - | - | - | - |
| 1777419819 | 25° C | 73% | 1017.3 hPa | - | - | - | - |
| 1777419216 | 25° C | 73% | 1017.3 hPa | - | - | - | - |
| 1777418619 | 25° C | 73% | 1017.3 hPa | - | - | - | - |
| 1777418019 | 25° C | 73% | 1017.3 hPa | - | - | - | - |
| 1777417414 | 25° C | 73% | 1016.9 hPa | - | - | - | - |
| 1777416815 | 25.56° C | 74% | 1016.6 hPa | - | - | - | - |
| 1777416220 | 25.56° C | 74% | 1016.6 hPa | - | - | - | - |
| 1777415621 | 26.67° C | 61% | 1016.3 hPa | - | - | - | - |
| 1777415017 | 26.67° C | 61% | 1016.3 hPa | - | - | - | - |
| 1777414417 | 26.67° C | 61% | 1016.3 hPa | - | - | - | - |
| 1777413821 | 26.67° C | 61% | 1016.3 hPa | - | - | - | - |
| 1777413215 | 27.78° C | 58% | 1017.3 hPa | - | - | - | - |
| 1777412618 | 27.78° C | 58% | 1017.3 hPa | - | - | - | - |
| 1777412020 | 27.78° C | 58% | 1017.3 hPa | - | - | - | - |
| 1777411419 | 27.78° C | 58% | 1017.3 hPa | - | - | - | - |
| 1777410815 | 27.78° C | 58% | 1017.3 hPa | - | - | - | - |
| 1777410217 | 27.78° C | 58% | 1017.3 hPa | - | - | - | - |
| 1777409614 | 28.89° C | 54% | 1017.9 hPa | - | - | - | - |
| 1777409019 | 28.89° C | 54% | 1017.9 hPa | - | - | - | - |
| 1777408415 | 28.89° C | 54% | 1017.9 hPa | - | - | - | - |
| 1777407943 | 28.89° C | 54% | 1017.9 hPa | - | - | - | - |
* Rain since midnight (hover to see other rain measurements)
** Current wind speed in m/s (hover to see current wind gust speed)